Location: Bailey Inglish Elementary School
(33.5826°N, 96.1780°W)
Time: 16:39:54
(UTC+00:00)

BlueWalker 3 - Pass Details

Date: 02 July 2024
Orbit: 480 x 492 km, 53.2° (Epoch: 15 July)

Event Time Altitude Azimuth Distance (km) Brightness Sun altitude
Rises 05:04:35 0° 325° (NW) 2,537 6.6 -30.0°
Reaches altitude 10° 05:06:58 10° 338° (NNW) 1,654 5.5 -30.2°
Enters shadow 05:08:29 19° 355° (N) 1,181 4.5 -30.3°
